RH
13 14 15 15 16 19 19 20 23 25 27 30 32 32 32 33 34 32 32 32 33 37 40 41 41 39 40 41 42 44 46 46 46 45 41 37 36 37 36 33 32 31 30 30 29 27 27 27 27 27 28 29 28 29 30 30 31 33 32 31 32 33 34 35 35 36 36 35 34 34 34 34 34 33 32 32 32 31 30 30 29 30 35 35 28 25
13 14 14 15 17 18 18 21 25 25 27 31 33 35 35 34 35 33 31 32 33 36 40 41 41 39 39 41 41 43 46 46 45 44 43 40 38 39 39 36 33 32 33 33 31 30 29 28 27 27 27 27 27 28 29 30 31 32 32 32 32 32 33 34 33 33 33 33 33 32 30 28 28 28 28 28 28 28 29 28 27 26 25 23 22 22
14 13 13 16 18 18 18 22 25 24 27 32 34 35 36 37 38 36 34 35 35 37 42 43 40 39 40 42 41 41 42 42 42 41 42 43 43 42 42 41 38 35 35 35 33 33 31 29 28 27 27 27 27 28 29 30 30 31 32 32 32 32 31 31 31 31 31 30 29 27 26 26 26 27 27 27 27 27 27 25 24 23 22 22 21 21
14 13 13 17 18 18 19 22 24 25 28 31 33 34 37 38 38 37 37 39 39 40 43 44 42 41 43 45 44 42 41 41 42 41 42 46 47 45 45 44 42 39 36 35 34 35 34 32 29 27 28 28 28 28 29 29 29 29 30 30 31 31 29 29 29 28 27 26 26 25 26 27 28 28 27 25 25 25 24 23 23 22 21 21 20 19
13 12 14 17 18 17 17 21 25 27 30 31 31 32 35 37 37 38 40 42 44 45 44 45 47 47 47 48 46 44 43 42 42 42 44 48 49 48 47 46 45 42 40 37 34 34 34 33 30 29 28 29 28 28 28 28 27 28 28 28 28 29 28 27 26 24 25 25 25 25 26 28 28 28 26 24 24 24 24 23 22 22 22 21 20 20
12 12 15 16 16 15 16 22 26 28 29 30 30 30 33 35 37 40 41 43 48 48 43 45 52 54 51 48 46 44 44 42 41 42 45 48 49 50 50 49 47 46 45 41 37 36 34 33 32 31 29 28 27 27 27 26 26 25 26 26 27 28 27 25 24 24 24 24 24 25 25 25 26 25 24 23 24 24 24 24 23 22 23 22 21 21
13 13 14 15 15 15 17 21 26 28 29 29 29 29 32 34 36 40 42 44 47 44 39 41 48 54 52 46 44 45 44 42 42 43 44 46 48 49 51 51 50 48 48 46 44 41 36 33 32 31 29 27 26 27 27 25 25 24 25 26 28 27 26 25 25 25 26 25 24 25 24 23 24 25 24 24 24 25 25 24 23 23 22 22 21 22
12 13 14 14 14 15 17 20 24 26 27 27 27 27 30 32 34 37 41 44 43 40 41 42 45 51 50 43 41 45 45 44 42 43 44 44 46 49 50 51 51 50 48 46 46 44 39 35 33 31 31 29 28 29 27 26 26 26 26 27 27 27 25 25 26 26 28 27 25 24 24 24 26 27 27 27 27 27 27 26 25 25 24 23 22 23
11 12 13 13 13 15 16 18 21 22 22 22 25 26 28 29 31 34 37 39 37 38 43 46 45 49 50 44 41 43 45 44 42 42 43 42 44 46 47 48 49 49 47 47 46 45 43 40 37 36 35 33 31 30 29 28 28 28 28 27 27 26 25 26 26 27 29 27 27 27 26 27 29 30 31 31 30 30 29 28 28 27 26 25 26 27
10 11 12 12 12 13 15 18 21 20 17 19 24 26 27 30 31 31 33 33 34 37 42 43 42 45 49 46 41 42 42 41 39 39 39 40 42 45 46 46 46 47 45 46 46 46 46 44 42 40 39 37 34 32 31 30 29 29 29 28 27 26 25 26 27 28 29 28 28 29 29 29 31 32 33 33 34 34 33 31 30 28 25 25 29 30
9 10 12 12 11 12 14 18 20 19 17 19 25 26 28 33 33 31 32 32 33 38 39 37 36 39 45 45 40 37 36 34 34 35 37 39 40 43 44 43 43 45 45 44 45 46 47 47 45 43 41 40 37 35 33 32 31 30 29 28 27 26 26 27 28 29 29 29 29 30 30 30 32 32 32 33 34 36 36 35 32 28 26 29 32 32
8 9 11 11 10 11 14 18 19 19 18 20 26 27 29 33 33 33 33 32 35 39 36 33 35 38 42 42 36 32 31 31 30 31 33 35 36 40 43 42 42 45 47 47 46 47 49 50 49 46 42 41 40 38 36 35 34 33 30 29 28 28 27 28 29 30 30 30 31 32 32 32 31 30 29 28 31 34 34 33 31 30 30 33 33 31
7 8 9 10 9 11 14 17 19 20 19 21 27 29 29 33 33 33 36 35 35 36 33 31 35 41 42 37 33 34 32 30 28 27 30 33 34 38 41 41 41 45 47 48 48 49 50 51 50 47 43 42 41 39 38 38 37 35 31 29 30 29 28 27 29 30 30 32 32 33 34 31 29 28 26 26 28 30 31 32 31 30 30 31 30 29
7 7 8 9 10 10 13 15 18 20 19 21 27 30 29 32 32 34 38 36 34 33 29 29 36 43 41 35 33 34 31 27 26 25 27 30 32 35 39 40 41 45 46 47 48 49 49 50 49 47 44 41 40 39 39 39 38 35 32 30 30 31 29 28 28 29 29 31 32 33 34 33 31 28 26 26 26 27 31 34 34 30 28 29 30 30
9 9 8 8 9 10 12 14 15 19 18 20 27 29 28 32 32 32 35 33 31 30 27 29 38 42 37 33 30 28 26 26 25 25 27 28 30 33 36 39 41 44 46 47 46 46 46 48 49 49 46 42 40 40 39 39 38 35 32 31 31 32 31 28 27 28 28 30 32 34 36 38 37 32 27 25 25 27 29 32 35 34 30 30 31 30
10 9 8 8 9 9 11 12 14 16 17 19 26 28 27 29 30 29 31 31 29 28 28 32 36 37 32 29 29 28 26 26 26 26 27 28 30 32 35 37 39 42 44 45 44 43 43 45 46 47 46 44 43 42 41 40 39 37 35 33 32 31 30 29 28 28 29 31 31 33 35 37 38 35 29 25 25 26 25 27 32 34 33 32 32 31
11 10 8 7 8 8 10 12 13 14 17 20 25 26 26 27 27 27 30 31 29 27 30 32 30 32 30 27 30 31 27 27 29 29 29 29 31 32 33 34 37 39 41 41 42 41 41 43 43 42 41 41 42 43 43 42 40 39 39 38 34 31 29 30 30 31 31 31 30 32 33 34 35 35 31 26 25 26 24 25 28 32 34 34 34 34
12 12 10 7 8 8 9 11 12 14 17 22 23 23 24 26 27 29 29 30 31 30 31 30 28 29 29 29 32 33 30 29 31 30 30 31 32 32 34 35 37 38 38 39 41 40 40 42 42 40 36 34 36 40 41 41 42 42 42 41 37 32 31 32 33 34 34 33 32 32 33 34 35 36 33 29 27 27 27 26 27 30 33 35 37 40
12 13 13 9 8 8 8 9 11 13 16 19 20 19 20 23 26 27 27 28 30 32 32 30 29 30 30 32 31 29 32 32 30 31 32 32 31 32 34 37 38 39 38 40 41 39 40 41 41 39 35 33 35 40 44 46 47 47 45 43 39 36 36 37 39 38 37 37 37 37 38 38 37 36 36 33 30 30 30 29 30 31 33 36 41 46
13 13 14 12 10 9 10 11 10 12 14 15 17 18 19 22 24 24 25 25 26 32 36 31 28 27 28 31 28 25 30 31 29 31 31 31 31 31 34 38 38 38 39 41 41 38 38 40 39 38 35 33 34 37 43 47 49 48 45 43 43 43 44 44 43 42 42 42 43 43 46 47 43 39 38 36 33 33 34 34 33 34 35 38 45 50
13 14 13 12 12 11 13 13 12 13 15 15 16 19 20 21 23 23 24 25 25 31 38 33 27 27 27 29 27 23 26 29 29 31 31 31 33 33 35 37 36 37 39 40 38 37 37 39 39 40 38 37 35 36 39 43 45 46 46 46 46 48 49 48 47 46 44 45 45 45 49 52 50 45 42 40 38 36 37 38 37 38 39 39 45 52
13 14 13 12 13 13 13 14 14 15 16 16 16 18 19 20 22 22 23 25 24 26 31 29 25 26 27 28 26 23 25 29 30 30 31 32 33 34 35 34 35 37 38 37 35 34 36 38 40 41 41 41 40 40 39 39 40 43 44 44 45 46 47 46 47 47 45 47 47 45 50 55 56 53 49 46 44 40 40 41 41 43 43 42 46 54
14 15 14 13 13 14 14 14 15 16 17 17 16 16 17 20 21 21 22 23 22 23 26 26 24 25 29 32 29 26 28 30 31 30 31 32 32 33 34 33 34 36 34 33 33 33 35 37 39 41 41 39 39 38 38 38 37 38 38 39 40 40 41 42 46 49 49 49 49 48 53 57 58 59 57 53 49 44 40 41 44 46 47 48 53 58
16 16 15 14 14 15 15 17 17 17 18 18 18 16 16 19 19 20 23 22 21 22 24 25 27 28 32 35 32 28 29 29 29 30 30 31 32 33 33 32 33 33 31 30 31 31 33 36 39 40 38 36 35 35 36 36 35 35 35 36 37 36 37 41 47 51 52 52 55 57 60 61 61 63 64 59 53 47 41 42 45 48 52 59 63 61
19 17 15 15 18 18 19 20 20 18 18 19 19 18 17 17 18 19 23 22 20 24 25 26 29 31 33 33 29 26 28 29 28 29 29 30 31 31 31 31 31 30 29 30 31 31 32 34 35 35 35 34 33 32 33 33 33 33 33 34 34 34 36 41 45 48 50 54 61 65 65 65 64 64 66 63 56 50 45 44 46 50 58 66 69 63
23 21 17 15 19 21 21 22 21 19 19 20 20 20 19 19 17 19 22 21 22 25 26 27 30 31 31 30 26 26 28 28 29 29 28 28 28 29 30 30 30 30 30 32 33 31 31 32 32 33 34 35 34 32 32 32 32 31 31 32 32 34 37 41 44 47 50 57 65 68 67 67 64 61 65 68 62 54 50 50 52 56 64 70 70 62
29 27 20 16 15 16 18 20 20 20 20 20 20 20 20 19 17 20 23 22 23 26 27 29 30 28 27 27 26 28 28 27 28 28 27 28 28 29 30 30 30 29 29 32 32 31 31 31 32 33 34 34 36 36 35 34 34 34 34 33 33 34 35 40 46 50 55 60 65 67 69 70 69 67 69 72 68 62 58 56 57 62 69 72 67 57
30 29 25 20 14 12 16 19 20 20 20 20 21 21 21 21 19 20 22 22 25 26 26 30 32 27 25 25 26 28 28 27 28 29 28 28 28 29 30 31 31 30 30 31 31 31 31 31 32 33 33 35 37 38 39 38 37 37 36 35 36 37 37 41 46 51 56 59 61 63 67 71 73 73 75 76 72 68 66 62 61 66 71 71 63 51
28 28 27 24 17 12 16 19 19 21 22 21 22 22 21 22 21 20 20 23 25 24 23 29 31 26 24 24 25 26 27 26 27 28 28 28 29 30 31 32 32 31 30 31 31 32 31 31 31 32 34 35 36 38 40 40 40 40 39 39 40 40 42 45 47 48 49 51 54 55 59 69 75 74 74 77 75 73 72 68 68 70 69 65 57 47
27 28 28 26 21 16 16 19 19 19 22 22 22 23 22 22 22 19 20 24 25 23 24 27 29 27 23 23 25 25 25 25 26 27 28 28 29 30 31 32 32 31 31 32 32 32 31 31 31 33 35 36 37 40 42 43 44 43 44 45 45 45 48 50 51 50 48 47 49 50 53 65 76 74 72 74 74 76 77 73 70 69 65 61 54 47
28 30 30 27 24 20 17 19 19 20 21 22 22 22 22 22 23 21 22 26 25 24 27 28 29 27 25 25 27 25 25 26 27 28 28 27 28 30 33 34 33 33 34 33 33 33 33 34 34 34 35 37 39 41 43 45 45 45 47 49 49 51 55 55 55 54 52 50 53 55 60 69 75 73 72 75 76 78 78 74 69 64 61 62 58 52
32 33 32 27 25 22 18 18 19 20 22 22 22 22 22 23 24 24 25 27 26 26 29 30 28 26 26 28 29 27 27 28 27 27 27 27 29 32 34 35 35 34 35 34 34 34 34 35 36 35 37 39 41 43 45 47 48 50 51 51 51 53 55 56 56 55 54 55 55 58 66 73 73 68 65 67 71 74 75 72 66 61 61 64 63 57
36 34 32 30 27 23 19 18 19 21 24 27 27 25 24 25 26 25 27 28 28 28 30 29 26 25 27 29 29 28 28 28 27 27 27 28 31 34 35 35 35 34 34 35 35 35 35 37 37 37 38 40 42 44 45 46 47 48 48 47 49 52 53 54 53 51 51 51 50 57 67 72 70 66 61 60 63 68 71 68 63 62 64 66 62 57
39 36 33 32 27 23 20 19 20 24 28 31 32 28 26 27 27 28 30 30 30 31 31 28 27 28 29 28 27 28 29 27 27 27 28 30 33 34 35 35 34 34 34 36 36 37 37 38 37 36 36 37 38 38 39 39 40 40 39 39 41 44 46 47 47 45 45 45 49 63 73 70 64 62 62 62 63 66 68 65 62 65 66 64 60 55
39 37 36 34 30 27 25 22 22 26 30 32 33 31 29 29 29 30 33 34 33 34 33 31 31 31 29 28 28 28 27 26 27 28 29 31 33 33 34 35 35 36 36 37 37 38 38 38 37 36 35 35 35 34 34 35 35 36 36 36 37 38 39 40 40 41 43 45 54 68 72 67 63 59 59 63 70 74 75 67 61 62 63 60 58 52
38 37 39 38 33 29 26 25 25 28 32 34 33 32 33 32 30 31 33 35 35 36 35 33 33 33 31 29 29 29 28 28 29 30 30 31 32 32 34 35 36 37 37 37 38 39 39 38 37 37 37 37 35 34 33 32 33 34 35 36 38 38 38 39 40 41 42 47 58 66 65 64 65 63 63 70 77 79 74 64 57 58 59 57 55 51
40 40 40 37 35 33 31 29 29 31 35 37 36 34 36 36 32 31 33 35 36 37 37 36 35 34 33 31 30 30 29 30 32 32 31 31 32 33 34 35 36 37 38 40 41 41 41 40 40 41 41 39 36 34 34 33 32 32 34 37 38 38 38 39 39 39 40 46 57 63 62 61 61 63 70 77 79 76 68 59 56 57 57 55 54 53
43 42 41 38 37 38 34 33 37 40 39 40 40 38 37 39 37 33 34 37 39 39 40 39 37 36 35 33 32 31 30 32 33 33 32 33 34 35 35 37 37 38 39 41 42 42 43 44 44 43 42 41 40 38 37 35 34 34 36 37 38 38 39 38 39 40 40 46 54 57 58 57 57 63 71 74 75 75 67 57 53 55 54 53 54 55
46 46 46 42 42 42 37 35 42 46 44 42 43 40 38 40 41 37 36 40 42 42 41 40 38 37 36 35 34 33 32 34 35 35 34 35 36 36 38 39 39 39 40 40 41 43 45 47 45 44 44 43 42 40 38 36 35 35 35 35 36 38 39 40 41 40 40 46 52 54 55 56 58 65 70 69 72 73 64 53 51 52 54 55 57 60
52 54 51 47 46 49 46 41 42 45 47 46 45 43 41 41 40 39 41 43 43 43 41 39 40 40 39 38 37 36 37 37 38 38 38 38 38 38 39 41 42 41 42 43 45 47 47 46 44 44 44 43 41 41 39 37 36 34 33 34 36 38 39 40 41 40 40 45 50 53 53 53 58 66 69 67 68 66 59 55 55 56 58 61 63 66
59 60 57 53 52 52 50 47 44 45 48 48 45 43 43 41 40 44 46 45 43 43 42 40 40 40 39 39 39 39 40 40 40 42 41 40 40 41 41 43 43 44 45 47 49 48 46 45 44 43 44 43 43 42 40 38 36 33 33 35 37 38 40 41 41 41 42 44 46 48 50 52 57 64 66 64 63 62 60 61 60 61 65 68 69 70
63 62 59 58 57 55 54 54 51 50 49 47 46 44 41 40 42 46 47 44 43 44 43 41 40 39 39 40 41 40 40 40 40 41 42 42 43 43 43 43 44 46 47 49 50 48 47 46 46 45 45 45 44 42 41 39 35 33 34 37 39 41 43 43 42 43 43 45 46 47 51 55 59 61 62 62 61 61 63 66 65 65 69 69 68 68
63 63 62 59 58 58 59 58 54 53 51 48 48 48 44 43 44 45 45 46 45 46 45 42 41 40 40 41 42 41 41 41 40 41 42 42 43 43 43 43 45 46 48 49 48 47 47 48 48 47 46 46 44 43 40 38 35 36 39 41 41 42 44 44 43 43 44 47 50 50 53 56 58 59 62 64 62 63 69 73 70 69 71 70 69 69
62 64 65 63 61 61 62 60 57 57 55 50 50 51 49 47 47 46 47 48 48 48 48 46 44 43 42 43 43 43 43 43 44 44 44 44 44 44 45 45 45 46 46 46 46 46 47 50 49 48 47 46 45 43 41 39 39 40 40 40 41 43 45 45 44 44 48 53 56 55 55 56 56 59 64 67 68 71 75 75 71 70 70 69 68 66
61 63 62 64 65 64 62 62 61 59 55 51 51 53 52 51 51 50 51 52 51 50 49 49 49 47 46 45 45 46 46 46 46 47 47 47 47 47 48 48 47 47 47 48 49 51 53 53 52 50 48 47 46 44 42 40 39 40 39 40 42 45 46 46 45 47 52 58 60 59 57 56 58 61 66 71 75 75 74 72 69 68 66 63 61 61
59 62 62 63 65 62 60 60 60 57 55 54 55 55 54 53 54 54 54 55 56 54 51 50 50 48 47 46 47 48 48 47 47 48 48 50 50 50 51 51 51 51 51 52 54 56 56 55 54 52 49 46 44 43 42 41 40 39 39 40 44 47 48 47 48 50 54 59 62 61 60 62 67 69 71 75 76 73 70 67 66 65 63 59 57 56
56 59 62 62 62 62 63 64 63 60 59 58 57 56 54 52 52 53 54 55 55 55 53 51 50 49 49 49 49 50 49 47 46 48 48 49 49 49 49 49 50 52 54 55 55 55 55 54 54 51 48 45 43 42 41 40 39 39 39 43 47 49 49 49 49 50 53 58 62 63 64 70 75 75 73 75 75 71 67 65 63 63 60 56 55 54
57 57 60 62 63 64 65 67 66 64 64 62 59 58 56 55 54 54 54 54 54 53 53 51 50 51 52 52 53 53 53 52 51 51 50 49 49 48 48 48 50 52 55 54 53 53 53 53 51 49 46 43 41 40 40 39 40 40 42 45 48 50 52 54 54 54 57 62 68 73 77 78 78 75 73 73 72 68 64 62 61 59 55 52 52 53
59 60 60 61 63 64 64 66 66 66 67 65 63 61 60 59 59 58 57 58 56 53 52 51 51 51 52 53 54 54 54 54 55 55 54 52 49 48 48 49 50 51 52 52 50 50 51 50 49 47 44 41 40 40 40 41 43 44 45 47 49 52 58 63 62 61 65 72 76 79 79 76 73 71 68 66 63 60 58 58 56 54 51 51 51 52
64 67 63 59 59 59 59 62 64 66 69 69 66 64 63 62 61 60 59 59 57 54 53 53 53 56 57 57 56 56 55 54 54 55 56 54 51 50 50 50 50 50 52 52 50 48 47 47 45 42 40 38 38 39 41 44 46 46 48 50 50 53 60 66 66 64 68 73 75 72 69 67 64 60 57 55 53 51 51 53 52 51 51 52 51 52
68 68 64 60 60 60 59 61 63 65 67 66 65 64 63 61 60 60 59 59 56 54 53 52 52 55 58 57 55 56 58 58 56 56 56 56 54 53 52 51 49 49 50 51 48 45 44 42 40 38 38 38 38 39 42 44 44 46 50 52 52 55 62 67 66 63 62 64 64 63 60 58 54 50 48 48 47 47 48 50 50 52 54 54 53 55